UAL1057 KSFO-KSAN

Flight info

Callsign UAL1057
Flight time 1h 2m
Altitude 33000
Route WESLA5 YYUNG LAX COMIX2
Aircraft B737/M-SDE2E3FGHIRWXY/LB1

Departure

Time 2026-04-22 00:15
Airport San Francisco International Airport (KSFO)

Arrival

Time 2026-04-22 01:17
Airport San Diego International Airport (KSAN)
Time Latitude Longitude Altitude Speed Heading
2026-04-21 23:58 37.61886 -122.38388 24 ft 0 kts 298°
2026-04-22 00:05 37.61886 -122.38386 21 ft 2 kts 298°
2026-04-22 00:05 37.61878 -122.38367 12 ft 2 kts 298°
2026-04-22 00:06 37.61869 -122.38348 15 ft 2 kts 298°
2026-04-22 00:06 37.61859 -122.38332 25 ft 2 kts 352°
2026-04-22 00:06 37.61850 -122.38331 21 ft 0 kts 24°
2026-04-22 00:07 37.61851 -122.38331 21 ft 1 kts 24°
2026-04-22 00:07 37.61866 -122.38322 26 ft 4 kts 24°
2026-04-22 00:07 37.61883 -122.38313 23 ft 0 kts 24°
2026-04-22 00:07 37.61885 -122.38312 22 ft 0 kts 24°
2026-04-22 00:08 37.61887 -122.38311 22 ft 0 kts 24°
2026-04-22 00:08 37.61891 -122.38309 22 ft 2 kts 24°
2026-04-22 00:08 37.61900 -122.38301 21 ft 0 kts 36°
2026-04-22 00:09 37.61901 -122.38300 21 ft 1 kts 36°
2026-04-22 00:09 37.61943 -122.38251 23 ft 15 kts 59°
2026-04-22 00:10 37.61919 -122.38093 21 ft 20 kts 117°
2026-04-22 00:10 37.61853 -122.37935 21 ft 21 kts 117°
2026-04-22 00:10 37.61794 -122.37768 21 ft 21 kts 108°
2026-04-22 00:10 37.61747 -122.37601 21 ft 20 kts 110°
2026-04-22 00:11 37.61691 -122.37447 21 ft 20 kts 119°
2026-04-22 00:11 37.61619 -122.37278 23 ft 22 kts 116°
2026-04-22 00:11 37.61552 -122.37109 21 ft 22 kts 117°
2026-04-22 00:11 37.61483 -122.36943 22 ft 21 kts 121°
2026-04-22 00:12 37.61384 -122.36812 22 ft 20 kts 130°
2026-04-22 00:12 37.61320 -122.36666 21 ft 12 kts 118°
2026-04-22 00:12 37.61281 -122.36573 22 ft 12 kts 118°
2026-04-22 00:12 37.61243 -122.36483 21 ft 12 kts 118°
2026-04-22 00:13 37.61202 -122.36386 21 ft 18 kts 118°
2026-04-22 00:13 37.61141 -122.36240 21 ft 19 kts 118°
2026-04-22 00:13 37.61080 -122.36095 22 ft 18 kts 118°
2026-04-22 00:13 37.61063 -122.35945 23 ft 18 kts 71°
2026-04-22 00:14 37.61094 -122.35912 23 ft 6 kts 25°
2026-04-22 00:14 37.61173 -122.35892 21 ft 13 kts 343°
2026-04-22 00:14 37.61228 -122.35979 22 ft 13 kts 297°
2026-04-22 00:14 37.61275 -122.36092 21 ft 30 kts 298°
2026-04-22 00:15 37.61533 -122.36711 21 ft 125 kts 297°
2026-04-22 00:15 37.62077 -122.37880 375 ft 176 kts 300°
2026-04-22 00:15 37.62860 -122.39280 993 ft 204 kts 307°
2026-04-22 00:15 37.63875 -122.40540 2029 ft 217 kts 330°
2026-04-22 00:16 37.65172 -122.39631 1010 ft 286 kts 62°
2026-04-22 00:16 37.65897 -122.37498 2674 ft 254 kts 57°
2026-04-22 00:16 37.67023 -122.35841 3922 ft 248 kts 35°
2026-04-22 00:16 37.68667 -122.35062 4419 ft 264 kts 348°
2026-04-22 00:17 37.70307 -122.35993 5517 ft 260 kts 324°
2026-04-22 00:17 37.71709 -122.37447 6716 ft 261 kts 302°
2026-04-22 00:17 37.72541 -122.39466 7972 ft 261 kts 292°
2026-04-22 00:17 37.73325 -122.41568 9119 ft 267 kts 289°
2026-04-22 00:18 37.73538 -122.43859 10215 ft 267 kts 257°
2026-04-22 00:18 37.72708 -122.46019 10830 ft 290 kts 229°
2026-04-22 00:18 37.71006 -122.47621 11161 ft 322 kts 208°
2026-04-22 00:18 37.68868 -122.48636 12019 ft 334 kts 194°
2026-04-22 00:19 37.66544 -122.49057 13138 ft 339 kts 187°
2026-04-22 00:19 37.64205 -122.49269 14221 ft 344 kts 186°
2026-04-22 00:19 37.61802 -122.49447 15197 ft 348 kts 186°
2026-04-22 00:19 37.59368 -122.49642 16103 ft 355 kts 186°
2026-04-22 00:20 37.56886 -122.49870 16993 ft 360 kts 187°
2026-04-22 00:20 37.54342 -122.50130 17989 ft 364 kts 187°
2026-04-22 00:20 37.51807 -122.50408 18842 ft 368 kts 188°
2026-04-22 00:20 37.49270 -122.50697 19566 ft 374 kts 188°
2026-04-22 00:21 37.46653 -122.51003 20302 ft 381 kts 189°
2026-04-22 00:21 37.43992 -122.51317 21060 ft 386 kts 190°
2026-04-22 00:21 37.41292 -122.51637 21806 ft 392 kts 190°
2026-04-22 00:21 37.38553 -122.51963 22454 ft 399 kts 192°
2026-04-22 00:22 37.35753 -122.52300 23023 ft 408 kts 192°
2026-04-22 00:22 37.32907 -122.52637 23736 ft 413 kts 193°
2026-04-22 00:22 37.30036 -122.52973 24357 ft 416 kts 193°
2026-04-22 00:22 37.27142 -122.53312 24946 ft 419 kts 194°
2026-04-22 00:23 37.24223 -122.53655 25488 ft 424 kts 194°
2026-04-22 00:23 37.21275 -122.54002 26022 ft 428 kts 194°
2026-04-22 00:23 37.18293 -122.54352 26495 ft 432 kts 195°
2026-04-22 00:23 37.15284 -122.54705 26974 ft 437 kts 196°
2026-04-22 00:24 37.12240 -122.55063 27471 ft 441 kts 196°
2026-04-22 00:24 37.09208 -122.55417 27980 ft 444 kts 196°
2026-04-22 00:24 37.06115 -122.55780 28480 ft 447 kts 197°
2026-04-22 00:24 37.02954 -122.55894 28932 ft 466 kts 187°
2026-04-22 00:25 36.99677 -122.55190 29370 ft 488 kts 175°
2026-04-22 00:25 36.96447 -122.53621 29752 ft 510 kts 162°
2026-04-22 00:25 36.94373 -122.52193 30065 ft 517 kts 159°
2026-04-22 00:25 36.90381 -122.48705 30719 ft 528 kts 149°
2026-04-22 00:26 36.88501 -122.46774 31138 ft 527 kts 148°
2026-04-22 00:26 36.85721 -122.43832 31831 ft 522 kts 147°
2026-04-22 00:26 36.82092 -122.39940 32738 ft 515 kts 147°
2026-04-22 00:26 36.79364 -122.37031 33067 ft 516 kts 148°
2026-04-22 00:27 36.77514 -122.35076 33075 ft 516 kts 148°
2026-04-22 00:27 36.72070 -122.29383 33091 ft 509 kts 149°
2026-04-22 00:28 36.66620 -122.23737 33106 ft 510 kts 149°
2026-04-22 00:28 36.61153 -122.18093 33103 ft 511 kts 149°
2026-04-22 00:29 36.55670 -122.12434 33099 ft 511 kts 149°
2026-04-22 00:29 36.50213 -122.06806 33061 ft 512 kts 149°
2026-04-22 00:30 36.44720 -122.01151 33093 ft 511 kts 149°
2026-04-22 00:30 36.39278 -121.95557 33089 ft 509 kts 149°
2026-04-22 00:31 36.33821 -121.89961 33067 ft 508 kts 149°
2026-04-22 00:31 36.28378 -121.84391 33093 ft 505 kts 150°
2026-04-22 00:32 36.22957 -121.78853 33113 ft 503 kts 150°
2026-04-22 00:32 36.17594 -121.73386 33095 ft 502 kts 150°
2026-04-22 00:33 36.12196 -121.67894 33094 ft 501 kts 150°
2026-04-22 00:33 36.06792 -121.62406 33096 ft 502 kts 150°
2026-04-22 00:34 36.01379 -121.56919 33019 ft 502 kts 150°
2026-04-22 00:34 35.96008 -121.51479 33122 ft 500 kts 150°
2026-04-22 00:35 35.90616 -121.46035 33102 ft 501 kts 150°
2026-04-22 00:35 35.85210 -121.40580 33045 ft 502 kts 150°
2026-04-22 00:36 35.79847 -121.35176 33080 ft 500 kts 150°
2026-04-22 00:36 35.74455 -121.29762 33085 ft 498 kts 150°
2026-04-22 00:37 35.69114 -121.24406 33085 ft 496 kts 150°
2026-04-22 00:37 35.63775 -121.19059 33090 ft 493 kts 150°
2026-04-22 00:38 35.58629 -121.13247 33096 ft 518 kts 137°
2026-04-22 00:38 35.54330 -121.06026 33095 ft 525 kts 133°
2026-04-22 00:39 35.50119 -120.98690 33101 ft 524 kts 133°
2026-04-22 00:39 35.45872 -120.91411 33101 ft 523 kts 133°
2026-04-22 00:40 35.41604 -120.84209 33109 ft 521 kts 134°
2026-04-22 00:40 35.37362 -120.77094 33054 ft 519 kts 134°
2026-04-22 00:41 35.33106 -120.69967 33081 ft 517 kts 134°
2026-04-22 00:41 35.28857 -120.62858 33076 ft 517 kts 133°
2026-04-22 00:42 35.24611 -120.55755 33091 ft 515 kts 134°
2026-04-22 00:42 35.20382 -120.48755 33060 ft 512 kts 135°
2026-04-22 00:43 35.16108 -120.41822 33085 ft 512 kts 134°
2026-04-22 00:43 35.11912 -120.34764 33089 ft 513 kts 133°
2026-04-22 00:44 35.07711 -120.27710 33035 ft 513 kts 134°
2026-04-22 00:44 35.03475 -120.20684 33078 ft 514 kts 134°
2026-04-22 00:45 34.99251 -120.13712 33076 ft 514 kts 134°
2026-04-22 00:45 34.94982 -120.06693 33100 ft 514 kts 134°
2026-04-22 00:46 34.90717 -119.99682 33099 ft 514 kts 134°
2026-04-22 00:46 34.86448 -119.92676 33073 ft 514 kts 134°
2026-04-22 00:47 34.82209 -119.85731 33098 ft 513 kts 134°
2026-04-22 00:47 34.77951 -119.78770 33099 ft 511 kts 134°
2026-04-22 00:48 34.73690 -119.71822 33088 ft 510 kts 134°
2026-04-22 00:48 34.69450 -119.64908 33095 ft 508 kts 134°
2026-04-22 00:49 34.65234 -119.58069 33077 ft 509 kts 134°
2026-04-22 00:49 34.60987 -119.51190 33082 ft 508 kts 135°
2026-04-22 00:50 34.56746 -119.44328 33078 ft 507 kts 135°
2026-04-22 00:50 34.52513 -119.37497 33087 ft 505 kts 135°
2026-04-22 00:51 34.48274 -119.30673 33082 ft 507 kts 135°
2026-04-22 00:51 34.44055 -119.23881 33082 ft 507 kts 135°
2026-04-22 00:52 34.39803 -119.17053 33103 ft 507 kts 135°
2026-04-22 00:52 34.35546 -119.10243 33150 ft 503 kts 136°
2026-04-22 00:53 34.31225 -119.03416 33134 ft 505 kts 135°
2026-04-22 00:53 34.27075 -118.96729 33109 ft 505 kts 135°
2026-04-22 00:54 34.22832 -118.89924 33108 ft 506 kts 136°
2026-04-22 00:54 34.18570 -118.83141 33107 ft 506 kts 136°
2026-04-22 00:55 34.14328 -118.76409 33098 ft 507 kts 136°
2026-04-22 00:55 34.07924 -118.66276 33123 ft 505 kts 136°
2026-04-22 00:56 34.03661 -118.59537 33108 ft 505 kts 136°
2026-04-22 00:56 33.99404 -118.52809 33123 ft 504 kts 136°
2026-04-22 00:57 33.95151 -118.46111 33087 ft 502 kts 136°
2026-04-22 00:57 33.90770 -118.39629 33105 ft 494 kts 142°
2026-04-22 00:58 33.86079 -118.33717 33114 ft 490 kts 144°
2026-04-22 00:58 33.81370 -118.27758 33110 ft 491 kts 143°
2026-04-22 00:59 33.76724 -118.21739 33097 ft 491 kts 142°
2026-04-22 00:59 33.72100 -118.15665 33098 ft 491 kts 142°
2026-04-22 01:00 33.67486 -118.09593 33107 ft 492 kts 142°
2026-04-22 01:00 33.65201 -118.06595 32555 ft 497 kts 142°
2026-04-22 01:00 33.62857 -118.03525 31715 ft 496 kts 142°
2026-04-22 01:01 33.60527 -118.00472 30730 ft 497 kts 142°
2026-04-22 01:01 33.58183 -117.97405 29642 ft 498 kts 141°
2026-04-22 01:01 33.55843 -117.94345 28795 ft 492 kts 141°
2026-04-22 01:01 33.53504 -117.91389 28001 ft 482 kts 144°
2026-04-22 01:02 33.51154 -117.88656 27255 ft 473 kts 145°
2026-04-22 01:02 33.48777 -117.85976 26492 ft 467 kts 145°
2026-04-22 01:02 33.46432 -117.83310 25752 ft 462 kts 144°
2026-04-22 01:02 33.44124 -117.80651 24980 ft 458 kts 143°
2026-04-22 01:03 33.41819 -117.78064 24266 ft 451 kts 145°
2026-04-22 01:03 33.39491 -117.75577 23509 ft 446 kts 146°
2026-04-22 01:03 33.37167 -117.73136 22658 ft 442 kts 146°
2026-04-22 01:03 33.34872 -117.70722 21885 ft 437 kts 146°
2026-04-22 01:04 33.32607 -117.68326 21130 ft 432 kts 145°
2026-04-22 01:04 33.30369 -117.65945 20398 ft 427 kts 145°
2026-04-22 01:04 33.28163 -117.63593 19669 ft 423 kts 145°
2026-04-22 01:04 33.25977 -117.61264 18924 ft 419 kts 144°
2026-04-22 01:05 33.23802 -117.58955 18168 ft 415 kts 144°
2026-04-22 01:05 33.21677 -117.56715 17412 ft 410 kts 144°
2026-04-22 01:05 33.19545 -117.54475 16624 ft 406 kts 144°
2026-04-22 01:05 33.17425 -117.52248 15851 ft 403 kts 144°
2026-04-22 01:06 33.15345 -117.50060 15400 ft 392 kts 144°
2026-04-22 01:06 33.13343 -117.47969 15255 ft 373 kts 147°
2026-04-22 01:06 33.11315 -117.46191 15105 ft 352 kts 152°
2026-04-22 01:06 33.09329 -117.44605 15010 ft 335 kts 153°
2026-04-22 01:07 33.07414 -117.43066 14659 ft 331 kts 153°
2026-04-22 01:07 33.05500 -117.41502 14310 ft 336 kts 152°
2026-04-22 01:07 33.03590 -117.39922 13988 ft 341 kts 151°
2026-04-22 01:07 33.01640 -117.38288 13607 ft 344 kts 150°
2026-04-22 01:08 32.99681 -117.36641 13225 ft 344 kts 150°
2026-04-22 01:08 32.98388 -117.35553 12965 ft 342 kts 150°
2026-04-22 01:08 32.95823 -117.33396 12361 ft 334 kts 150°
2026-04-22 01:08 32.93935 -117.31813 11916 ft 329 kts 150°
2026-04-22 01:09 32.92072 -117.30255 11394 ft 327 kts 150°
2026-04-22 01:09 32.90207 -117.28701 10801 ft 327 kts 150°
2026-04-22 01:09 32.88371 -117.27174 10199 ft 317 kts 150°
2026-04-22 01:09 32.86587 -117.25690 9576 ft 309 kts 150°
2026-04-22 01:10 32.84849 -117.24246 9001 ft 300 kts 150°
2026-04-22 01:10 32.83157 -117.22842 8406 ft 294 kts 150°
2026-04-22 01:10 32.81593 -117.21300 7769 ft 296 kts 132°
2026-04-22 01:10 32.80655 -117.19118 7162 ft 299 kts 110°
2026-04-22 01:11 32.80136 -117.16771 6585 ft 296 kts 107°
2026-04-22 01:11 32.79639 -117.14407 5943 ft 293 kts 106°
2026-04-22 01:11 32.79135 -117.12071 5346 ft 290 kts 106°
2026-04-22 01:11 32.78634 -117.09799 5037 ft 277 kts 106°
2026-04-22 01:12 32.78155 -117.07646 4857 ft 261 kts 106°
2026-04-22 01:12 32.77644 -117.05631 4669 ft 247 kts 114°
2026-04-22 01:12 32.77187 -117.04419 4560 ft 238 kts 117°
2026-04-22 01:12 32.76464 -117.02695 4384 ft 226 kts 126°
2026-04-22 01:13 32.75321 -117.01579 4155 ft 209 kts 170°
2026-04-22 01:13 32.73957 -117.01556 4010 ft 190 kts 195°
2026-04-22 01:13 32.72714 -117.02034 3662 ft 186 kts 210°
2026-04-22 01:13 32.71216 -117.02989 3231 ft 182 kts 214°
2026-04-22 01:14 32.70350 -117.04019 2865 ft 176 kts 245°
2026-04-22 01:14 32.70122 -117.04950 2624 ft 173 kts 265°
2026-04-22 01:14 32.70330 -117.06335 2311 ft 169 kts 285°
2026-04-22 01:14 32.70642 -117.07644 2025 ft 161 kts 284°
2026-04-22 01:15 32.70946 -117.08944 1795 ft 166 kts 284°
2026-04-22 01:15 32.71260 -117.10269 1558 ft 162 kts 284°
2026-04-22 01:15 32.71552 -117.11488 1322 ft 146 kts 284°
2026-04-22 01:15 32.71824 -117.12607 1156 ft 137 kts 284°
2026-04-22 01:16 32.72105 -117.13680 889 ft 133 kts 285°
2026-04-22 01:16 32.72347 -117.14768 692 ft 138 kts 285°
2026-04-22 01:16 32.72613 -117.15874 467 ft 135 kts 281°
2026-04-22 01:16 32.72859 -117.16883 278 ft 125 kts 284°
2026-04-22 01:17 32.73096 -117.17860 55 ft 120 kts 282°
2026-04-22 01:17 32.73304 -117.18752 20 ft 100 kts 285°
2026-04-22 01:17 32.73348 -117.19154 19 ft 23 kts 230°
2026-04-22 01:17 32.73326 -117.19246 19 ft 11 kts 280°
2026-04-22 01:18 32.73346 -117.19335 20 ft 11 kts 285°
2026-04-22 01:18 32.73367 -117.19423 24 ft 11 kts 285°
2026-04-22 01:18 32.73380 -117.19482 24 ft 1 kts 285°
2026-04-22 01:18 32.73382 -117.19491 23 ft 1 kts 285°
2026-04-22 01:19 32.73384 -117.19499 23 ft 1 kts 285°
2026-04-22 01:19 32.73388 -117.19518 23 ft 7 kts 285°
2026-04-22 01:19 32.73386 -117.19585 22 ft 9 kts 259°
2026-04-22 01:19 32.73370 -117.19659 21 ft 9 kts 249°
2026-04-22 01:20 32.73350 -117.19696 19 ft 3 kts 224°
2026-04-22 01:20 32.73322 -117.19692 19 ft 5 kts 129°
2026-04-22 01:20 32.73315 -117.19682 19 ft 0 kts 130°